QPF
0.05 0.04 0.02 0.00 0.00 0.00 0.00 0.00 0.00 0.00 0.00 0.00 0.00 0.00 0.00 0.00 0.00 0.00 0.00 0.00 0.00 0.00 0.00 0.01 0.01 0.00 0.01 0.01 0.01 0.03 0.03 0.03 0.03 0.02 0.02 0.03 0.04 0.03 0.02 0.03 0.03 0.04 0.04
0.04 0.04 0.02 0.01 0.00 0.00 0.00 0.00 0.00 0.00 0.00 0.00 0.00 0.00 0.00 0.00 0.00 0.00 0.00 0.00 0.00 0.00 0.00 0.00 0.01 0.00 0.01 0.01 0.01 0.03 0.03 0.02 0.03 0.04 0.03 0.04 0.05 0.03 0.02 0.02 0.03 0.03 0.03
0.04 0.03 0.02 0.01 0.00 0.00 0.00 0.00 0.00 0.00 0.00 0.00 0.00 0.00 0.00 0.00 0.00 0.00 0.00 0.00 0.00 0.00 0.00 0.00 0.00 0.01 0.01 0.01 0.01 0.02 0.03 0.02 0.02 0.04 0.05 0.05 0.03 0.03 0.03 0.03 0.03 0.03 0.02
0.05 0.04 0.03 0.01 0.00 0.00 0.00 0.00 0.00 0.00 0.00 0.00 0.00 0.00 0.00 0.00 0.00 0.00 0.00 0.00 0.00 0.01 0.00 0.00 0.00 0.00 0.01 0.01 0.01 0.01 0.01 0.02 0.02 0.02 0.02 0.02 0.03 0.03 0.04 0.03 0.02 0.02 0.02
0.04 0.04 0.03 0.02 0.01 0.00 0.00 0.00 0.00 0.00 0.00 0.00 0.00 0.00 0.00 0.00 0.00 0.00 0.01 0.00 0.00 0.00 0.00 0.00 0.00 0.00 0.00 0.00 0.00 0.01 0.01 0.01 0.02 0.02 0.01 0.01 0.02 0.02 0.02 0.03 0.02 0.02 0.02
0.02 0.03 0.03 0.03 0.01 0.00 0.00 0.00 0.00 0.00 0.00 0.00 0.00 0.00 0.00 0.00 0.00 0.01 0.01 0.00 0.00 0.00 0.00 0.00 0.00 0.00 0.00 0.00 0.00 0.00 0.00 0.01 0.02 0.02 0.01 0.01 0.01 0.02 0.03 0.03 0.02 0.02 0.02
0.01 0.02 0.02 0.03 0.01 0.00 0.00 0.00 0.00 0.00 0.00 0.00 0.00 0.00 0.00 0.00 0.00 0.00 0.00 0.00 0.00 0.00 0.00 0.00 0.00 0.00 0.00 0.00 0.00 0.00 0.00 0.00 0.01 0.01 0.01 0.02 0.01 0.02 0.03 0.03 0.02 0.01 0.02
0.00 0.01 0.01 0.02 0.02 0.01 0.01 0.00 0.00 0.00 0.00 0.00 0.00 0.00 0.00 0.00 0.00 0.00 0.00 0.00 0.00 0.00 0.00 0.00 0.00 0.00 0.00 0.00 0.00 0.00 0.00 0.00 0.00 0.00 0.01 0.01 0.02 0.03 0.03 0.03 0.02 0.02 0.02
0.00 0.00 0.00 0.01 0.01 0.01 0.01 0.01 0.00 0.00 0.00 0.00 0.00 0.00 0.00 0.00 0.00 0.00 0.00 0.00 0.00 0.00 0.00 0.00 0.00 0.00 0.00 0.00 0.00 0.00 0.00 0.00 0.00 0.00 0.01 0.01 0.01 0.02 0.02 0.02 0.04 0.03 0.01
0.00 0.00 0.00 0.00 0.00 0.01 0.01 0.01 0.00 0.00 0.00 0.00 0.00 0.00 0.00 0.00 0.00 0.00 0.00 0.00 0.00 0.00 0.00 0.00 0.00 0.00 0.00 0.00 0.00 0.00 0.00 0.00 0.00 0.00 0.00 0.00 0.00 0.01 0.01 0.02 0.05 0.06 0.03
0.00 0.00 0.01 0.00 0.00 0.00 0.00 0.01 0.00 0.00 0.00 0.00 0.00 0.00 0.00 0.00 0.00 0.00 0.00 0.00 0.00 0.00 0.00 0.00 0.00 0.00 0.00 0.00 0.00 0.00 0.00 0.00 0.00 0.00 0.00 0.00 0.00 0.00 0.01 0.02 0.04 0.05 0.03
0.00 0.00 0.01 0.01 0.00 0.00 0.00 0.01 0.01 0.01 0.00 0.00 0.00 0.00 0.00 0.00 0.00 0.00 0.00 0.00 0.00 0.00 0.00 0.00 0.00 0.00 0.00 0.00 0.00 0.00 0.00 0.00 0.00 0.00 0.00 0.01 0.00 0.00 0.01 0.01 0.02 0.02 0.01
0.00 0.00 0.00 0.00 0.00 0.01 0.01 0.01 0.01 0.01 0.01 0.00 0.00 0.00 0.00 0.00 0.00 0.00 0.00 0.00 0.00 0.00 0.00 0.00 0.00 0.00 0.00 0.00 0.00 0.00 0.00 0.00 0.00 0.00 0.00 0.00 0.00 0.00 0.00 0.00 0.00 0.00 0.00
0.00 0.00 0.00 0.00 0.00 0.00 0.01 0.01 0.01 0.01 0.01 0.01 0.00 0.00 0.00 0.00 0.00 0.00 0.00 0.00 0.00 0.00 0.00 0.00 0.00 0.00 0.00 0.00 0.00 0.00 0.00 0.00 0.00 0.00 0.00 0.00 0.00 0.00 0.00 0.00 0.00 0.00 0.00
0.00 0.00 0.00 0.00 0.00 0.00 0.01 0.00 0.00 0.01 0.01 0.01 0.01 0.01 0.00 0.00 0.00 0.00 0.00 0.00 0.00 0.00 0.00 0.00 0.00 0.00 0.00 0.00 0.00 0.00 0.00 0.00 0.00 0.00 0.00 0.00 0.00 0.00 0.00 0.00 0.00 0.00 0.00
0.00 0.00 0.00 0.00 0.00 0.00 0.00 0.00 0.00 0.00 0.00 0.01 0.01 0.01 0.00 0.00 0.00 0.00 0.00 0.00 0.00 0.00 0.00 0.00 0.00 0.00 0.00 0.00 0.00 0.00 0.00 0.00 0.00 0.00 0.00 0.00 0.00 0.00 0.01 0.01 0.01 0.01 0.00
0.00 0.01 0.01 0.01 0.01 0.01 0.01 0.00 0.00 0.00 0.00 0.00 0.01 0.01 0.00 0.00 0.00 0.00 0.00 0.00 0.00 0.00 0.00 0.00 0.00 0.00 0.00 0.00 0.00 0.00 0.00 0.00 0.00 0.00 0.00 0.00 0.00 0.00 0.01 0.01 0.01 0.01 0.00
0.00 0.01 0.01 0.01 0.01 0.01 0.01 0.01 0.01 0.01 0.01 0.01 0.00 0.00 0.01 0.01 0.00 0.00 0.00 0.00 0.00 0.00 0.00 0.00 0.00 0.00 0.00 0.00 0.00 0.00 0.00 0.00 0.00 0.00 0.00 0.00 0.00 0.00 0.00 0.01 0.00 0.00 0.00
0.00 0.00 0.00 0.01 0.01 0.01 0.01 0.01 0.01 0.01 0.01 0.00 0.00 0.00 0.01 0.01 0.01 0.01 0.00 0.00 0.00 0.00 0.00 0.00 0.00 0.00 0.00 0.00 0.00 0.00 0.00 0.00 0.00 0.00 0.00 0.00 0.00 0.00 0.00 0.01 0.01 0.00 0.00
0.00 0.01 0.01 0.01 0.01 0.01 0.01 0.01 0.01 0.01 0.01 0.01 0.00 0.00 0.00 0.01 0.01 0.01 0.00 0.00 0.00 0.00 0.00 0.00 0.00 0.00 0.00 0.00 0.00 0.00 0.00 0.00 0.00 0.00 0.00 0.00 0.00 0.00 0.00 0.01 0.01 0.01 0.00
0.00 0.01 0.01 0.01 0.01 0.01 0.01 0.01 0.01 0.01 0.01 0.01 0.00 0.00 0.00 0.01 0.01 0.01 0.01 0.00 0.00 0.00 0.00 0.00 0.00 0.00 0.00 0.00 0.00 0.00 0.00 0.00 0.00 0.00 0.00 0.00 0.00 0.00 0.00 0.00 0.01 0.01 0.01
0.00 0.00 0.00 0.00 0.01 0.01 0.01 0.00 0.00 0.00 0.00 0.00 0.00 0.00 0.00 0.00 0.01 0.01 0.00 0.00 0.00 0.00 0.00 0.00 0.00 0.00 0.00 0.00 0.00 0.00 0.00 0.00 0.00 0.00 0.00 0.00 0.00 0.00 0.00 0.00 0.00 0.01 0.00
0.00 0.00 0.00 0.00 0.00 0.00 0.00 0.00 0.00 0.00 0.00 0.00 0.00 0.00 0.00 0.00 0.00 0.00 0.00 0.00 0.00 0.00 0.00 0.00 0.00 0.00 0.00 0.00 0.00 0.00 0.00 0.00 0.00 0.00 0.00 0.00 0.00 0.00 0.00 0.00 0.00 0.00 0.00
0.00 0.00 0.00 0.00 0.00 0.00 0.00 0.00 0.00 0.00 0.01 0.01 0.00 0.00 0.00 0.00 0.00 0.00 0.00 0.00 0.00 0.00 0.00 0.00 0.00 0.00 0.00 0.00 0.00 0.00 0.00 0.00 0.00 0.00 0.00 0.00 0.00 0.00 0.00 0.00 0.00 0.00 0.00
0.00 0.00 0.00 0.00 0.00 0.00 0.00 0.00 0.00 0.00 0.01 0.01 0.01 0.01 0.01 0.01 0.01 0.01 0.01 0.01 0.01 0.01 0.01 0.00 0.00 0.00 0.00 0.00 0.00 0.00 0.00 0.00 0.00 0.00 0.00 0.00 0.00 0.00 0.00 0.00 0.00 0.00 0.00
0.00 0.00 0.00 0.00 0.00 0.00 0.00 0.00 0.00 0.00 0.00 0.01 0.01 0.01 0.01 0.01 0.01 0.01 0.01 0.01 0.01 0.01 0.00 0.00 0.01 0.01 0.00 0.00 0.00 0.00 0.00 0.00 0.00 0.00 0.00 0.00 0.00 0.00 0.00 0.00 0.00 0.00 0.00
MSLP
1017.02 1017.24 1017.45 1017.64 1017.80 1017.95 1018.09 1018.25 1018.44 1018.64 1018.86 1019.08 1019.27 1019.42 1019.52 1019.55 1019.52 1019.45 1019.34 1019.22 1019.12 1019.03 1018.99 1018.99 1019.03 1019.11 1019.23 1019.36 1019.51 1019.67 1019.83 1020.00 1020.18 1020.36 1020.53 1020.70 1020.85 1020.97 1021.04 1021.04 1020.97 1020.82 1020.61
1016.77 1017.13 1017.47 1017.76 1017.99 1018.16 1018.30 1018.44 1018.58 1018.76 1018.98 1019.21 1019.44 1019.65 1019.81 1019.90 1019.91 1019.87 1019.77 1019.66 1019.55 1019.46 1019.41 1019.41 1019.45 1019.53 1019.63 1019.74 1019.86 1019.98 1020.10 1020.24 1020.39 1020.56 1020.75 1020.94 1021.14 1021.31 1021.44 1021.51 1021.51 1021.43 1021.28
1016.40 1016.91 1017.39 1017.79 1018.09 1018.30 1018.44 1018.55 1018.67 1018.82 1019.03 1019.27 1019.54 1019.79 1020.01 1020.16 1020.22 1020.22 1020.15 1020.05 1019.95 1019.86 1019.82 1019.82 1019.86 1019.92 1020.00 1020.09 1020.17 1020.24 1020.32 1020.41 1020.53 1020.68 1020.88 1021.10 1021.35 1021.58 1021.79 1021.94 1022.02 1022.03 1021.97
1015.87 1016.53 1017.15 1017.66 1018.05 1018.31 1018.47 1018.57 1018.67 1018.81 1019.00 1019.25 1019.55 1019.84 1020.11 1020.32 1020.44 1020.48 1020.45 1020.38 1020.29 1020.22 1020.19 1020.19 1020.23 1020.29 1020.35 1020.41 1020.45 1020.48 1020.51 1020.56 1020.64 1020.78 1020.97 1021.22 1021.50 1021.80 1022.08 1022.31 1022.49 1022.60 1022.63
1015.21 1016.00 1016.74 1017.37 1017.85 1018.17 1018.37 1018.48 1018.58 1018.71 1018.90 1019.16 1019.48 1019.81 1020.12 1020.37 1020.55 1020.63 1020.65 1020.61 1020.56 1020.51 1020.49 1020.51 1020.56 1020.62 1020.67 1020.71 1020.72 1020.71 1020.70 1020.71 1020.76 1020.88 1021.06 1021.32 1021.62 1021.96 1022.30 1022.61 1022.87 1023.07 1023.20
1014.46 1015.34 1016.19 1016.93 1017.50 1017.89 1018.14 1018.29 1018.41 1018.55 1018.75 1019.02 1019.35 1019.70 1020.05 1020.34 1020.55 1020.68 1020.74 1020.74 1020.73 1020.72 1020.73 1020.77 1020.83 1020.90 1020.96 1020.99 1020.99 1020.96 1020.92 1020.90 1020.92 1021.00 1021.17 1021.41 1021.72 1022.08 1022.45 1022.81 1023.13 1023.40 1023.61
1013.70 1014.63 1015.56 1016.37 1017.02 1017.50 1017.81 1018.01 1018.17 1018.33 1018.55 1018.84 1019.18 1019.55 1019.91 1020.23 1020.47 1020.64 1020.74 1020.79 1020.81 1020.84 1020.89 1020.97 1021.06 1021.15 1021.23 1021.27 1021.26 1021.23 1021.18 1021.13 1021.12 1021.18 1021.31 1021.52 1021.81 1022.15 1022.53 1022.90 1023.25 1023.56 1023.83
1012.98 1013.93 1014.88 1015.75 1016.48 1017.02 1017.41 1017.68 1017.89 1018.10 1018.34 1018.64 1018.99 1019.36 1019.73 1020.06 1020.33 1020.53 1020.66 1020.75 1020.82 1020.90 1020.99 1021.11 1021.24 1021.37 1021.47 1021.54 1021.55 1021.53 1021.47 1021.42 1021.39 1021.41 1021.50 1021.67 1021.92 1022.22 1022.55 1022.91 1023.25 1023.57 1023.86
1012.37 1013.28 1014.23 1015.13 1015.90 1016.51 1016.97 1017.32 1017.59 1017.85 1018.13 1018.44 1018.80 1019.17 1019.54 1019.88 1020.16 1020.38 1020.55 1020.68 1020.80 1020.93 1021.07 1021.23 1021.41 1021.57 1021.72 1021.81 1021.86 1021.85 1021.81 1021.76 1021.72 1021.71 1021.76 1021.88 1022.06 1022.30 1022.57 1022.87 1023.18 1023.48 1023.76
1011.87 1012.71 1013.63 1014.52 1015.32 1015.99 1016.52 1016.94 1017.29 1017.60 1017.92 1018.26 1018.62 1019.00 1019.36 1019.70 1019.99 1020.23 1020.43 1020.60 1020.77 1020.94 1021.14 1021.35 1021.57 1021.78 1021.96 1022.09 1022.17 1022.20 1022.18 1022.14 1022.09 1022.07 1022.09 1022.15 1022.27 1022.43 1022.64 1022.87 1023.11 1023.36 1023.61
1011.47 1012.22 1013.07 1013.94 1014.74 1015.45 1016.05 1016.54 1016.97 1017.34 1017.71 1018.08 1018.45 1018.83 1019.19 1019.53 1019.83 1020.10 1020.33 1020.54 1020.76 1020.98 1021.22 1021.48 1021.74 1021.98 1022.20 1022.37 1022.48 1022.54 1022.55 1022.53 1022.50 1022.47 1022.47 1022.49 1022.55 1022.65 1022.78 1022.93 1023.11 1023.29 1023.49
1011.12 1011.77 1012.55 1013.37 1014.17 1014.91 1015.56 1016.12 1016.62 1017.06 1017.48 1017.88 1018.28 1018.67 1019.04 1019.38 1019.70 1019.98 1020.25 1020.51 1020.77 1021.04 1021.32 1021.61 1021.90 1022.18 1022.42 1022.62 1022.76 1022.85 1022.89 1022.90 1022.88 1022.87 1022.86 1022.86 1022.89 1022.94 1023.01 1023.10 1023.20 1023.33 1023.47
1010.77 1011.33 1012.02 1012.80 1013.58 1014.33 1015.03 1015.66 1016.22 1016.73 1017.21 1017.65 1018.08 1018.49 1018.87 1019.23 1019.57 1019.88 1020.19 1020.49 1020.79 1021.10 1021.42 1021.74 1022.05 1022.34 1022.59 1022.80 1022.96 1023.07 1023.14 1023.18 1023.19 1023.20 1023.21 1023.22 1023.23 1023.26 1023.29 1023.34 1023.39 1023.47 1023.56
1010.37 1010.84 1011.47 1012.19 1012.96 1013.72 1014.45 1015.13 1015.76 1016.33 1016.87 1017.36 1017.83 1018.26 1018.67 1019.05 1019.41 1019.76 1020.10 1020.44 1020.79 1021.13 1021.47 1021.81 1022.13 1022.42 1022.67 1022.88 1023.04 1023.17 1023.26 1023.33 1023.37 1023.42 1023.45 1023.49 1023.52 1023.55 1023.58 1023.60 1023.63 1023.66 1023.72
1009.90 1010.31 1010.88 1011.55 1012.29 1013.05 1013.81 1014.54 1015.22 1015.86 1016.45 1016.99 1017.50 1017.97 1018.40 1018.82 1019.21 1019.59 1019.97 1020.35 1020.72 1021.09 1021.45 1021.79 1022.11 1022.38 1022.62 1022.82 1022.98 1023.11 1023.21 1023.30 1023.38 1023.46 1023.54 1023.62 1023.69 1023.74 1023.78 1023.81 1023.83 1023.84 1023.87
1009.37 1009.74 1010.25 1010.89 1011.60 1012.35 1013.12 1013.88 1014.61 1015.30 1015.94 1016.54 1017.08 1017.59 1018.06 1018.50 1018.92 1019.34 1019.74 1020.15 1020.55 1020.93 1021.30 1021.64 1021.95 1022.21 1022.43 1022.60 1022.75 1022.87 1022.98 1023.09 1023.20 1023.32 1023.45 1023.57 1023.67 1023.77 1023.84 1023.88 1023.91 1023.93 1023.94
1008.83 1009.16 1009.63 1010.22 1010.89 1011.63 1012.40 1013.18 1013.94 1014.67 1015.36 1015.99 1016.58 1017.12 1017.62 1018.09 1018.54 1018.97 1019.40 1019.83 1020.25 1020.64 1021.02 1021.35 1021.64 1021.88 1022.08 1022.24 1022.37 1022.48 1022.59 1022.71 1022.85 1023.00 1023.16 1023.32 1023.47 1023.61 1023.71 1023.78 1023.82 1023.84 1023.85
1008.33 1008.62 1009.04 1009.58 1010.22 1010.93 1011.69 1012.47 1013.25 1014.00 1014.72 1015.39 1016.00 1016.57 1017.09 1017.58 1018.04 1018.50 1018.95 1019.38 1019.81 1020.21 1020.59 1020.92 1021.20 1021.43 1021.61 1021.75 1021.87 1021.98 1022.09 1022.21 1022.36 1022.53 1022.72 1022.91 1023.09 1023.26 1023.39 1023.48 1023.54 1023.56 1023.57
1007.91 1008.17 1008.54 1009.03 1009.61 1010.28 1011.02 1011.79 1012.57 1013.33 1014.06 1014.74 1015.38 1015.96 1016.50 1017.00 1017.48 1017.94 1018.39 1018.83 1019.26 1019.67 1020.04 1020.37 1020.66 1020.89 1021.06 1021.20 1021.32 1021.42 1021.53 1021.65 1021.80 1021.98 1022.18 1022.38 1022.58 1022.76 1022.90 1023.01 1023.07 1023.10 1023.10
1007.64 1007.84 1008.15 1008.58 1009.11 1009.73 1010.42 1011.16 1011.93 1012.69 1013.42 1014.11 1014.75 1015.34 1015.88 1016.38 1016.86 1017.32 1017.77 1018.21 1018.64 1019.05 1019.43 1019.77 1020.06 1020.30 1020.49 1020.64 1020.76 1020.86 1020.97 1021.09 1021.24 1021.41 1021.60 1021.80 1021.99 1022.17 1022.31 1022.41 1022.47 1022.49 1022.47
1007.51 1007.66 1007.91 1008.27 1008.74 1009.30 1009.94 1010.64 1011.37 1012.11 1012.83 1013.51 1014.15 1014.74 1015.27 1015.77 1016.24 1016.69 1017.13 1017.57 1017.99 1018.40 1018.79 1019.15 1019.45 1019.71 1019.92 1020.09 1020.23 1020.34 1020.45 1020.57 1020.71 1020.86 1021.03 1021.20 1021.38 1021.53 1021.65 1021.74 1021.78 1021.78 1021.75
1007.53 1007.63 1007.82 1008.11 1008.51 1009.01 1009.60 1010.25 1010.94 1011.64 1012.33 1013.00 1013.62 1014.19 1014.72 1015.20 1015.66 1016.09 1016.52 1016.95 1017.37 1017.78 1018.17 1018.54 1018.87 1019.15 1019.39 1019.58 1019.74 1019.87 1019.99 1020.10 1020.21 1020.34 1020.47 1020.61 1020.75 1020.87 1020.96 1021.01 1021.03 1021.00 1020.95
1007.71 1007.75 1007.89 1008.12 1008.45 1008.89 1009.41 1010.00 1010.63 1011.29 1011.95 1012.58 1013.18 1013.73 1014.24 1014.70 1015.14 1015.56 1015.97 1016.38 1016.78 1017.19 1017.59 1017.97 1018.31 1018.62 1018.89 1019.11 1019.29 1019.43 1019.54 1019.64 1019.73 1019.83 1019.92 1020.01 1020.10 1020.17 1020.23 1020.25 1020.23 1020.19 1020.11
1008.00 1008.01 1008.10 1008.28 1008.55 1008.92 1009.37 1009.90 1010.47 1011.08 1011.68 1012.28 1012.84 1013.36 1013.84 1014.29 1014.70 1015.10 1015.49 1015.88 1016.27 1016.66 1017.05 1017.44 1017.79 1018.12 1018.40 1018.64 1018.83 1018.98 1019.09 1019.17 1019.23 1019.29 1019.34 1019.38 1019.42 1019.44 1019.45 1019.44 1019.39 1019.32 1019.22
1008.39 1008.38 1008.44 1008.58 1008.80 1009.11 1009.49 1009.94 1010.45 1010.99 1011.54 1012.08 1012.60 1013.08 1013.54 1013.95 1014.34 1014.72 1015.08 1015.44 1015.81 1016.19 1016.56 1016.93 1017.29 1017.62 1017.90 1018.15 1018.34 1018.49 1018.59 1018.65 1018.68 1018.69 1018.69 1018.69 1018.67 1018.65 1018.62 1018.57 1018.50 1018.40 1018.28
1008.84 1008.84 1008.89 1009.00 1009.17 1009.42 1009.74 1010.12 1010.55 1011.01 1011.49 1011.97 1012.44 1012.89 1013.30 1013.69 1014.05 1014.40 1014.74 1015.07 1015.41 1015.76 1016.11 1016.46 1016.80 1017.11 1017.39 1017.63 1017.81 1017.94 1018.02 1018.06 1018.06 1018.03 1017.98 1017.93 1017.87 1017.80 1017.73 1017.65 1017.55 1017.44 1017.30
Thickness
5737 5738 5738 5739 5739 5739 5739 5737 5735 5734 5732 5731 5730 5728 5727 5726 5724 5721 5719 5718 5718 5717 5717 5716 5715 5713 5712 5710 5710 5707 5705 5704 5705 5704 5701 5701 5702 5703 5702 5704 5705 5706 5707
5734 5734 5734 5736 5737 5736 5736 5736 5735 5734 5732 5730 5730 5728 5725 5725 5722 5720 5718 5718 5717 5716 5716 5716 5714 5712 5710 5710 5709 5707 5706 5705 5705 5705 5703 5699 5698 5698 5700 5701 5702 5703 5704
5734 5733 5733 5734 5734 5734 5734 5734 5734 5732 5730 5729 5728 5726 5724 5723 5722 5719 5718 5716 5715 5714 5714 5714 5714 5712 5712 5710 5708 5708 5706 5704 5705 5706 5704 5700 5696 5696 5696 5698 5699 5700 5701
5735 5734 5733 5733 5733 5733 5734 5734 5732 5732 5730 5728 5727 5726 5723 5721 5720 5719 5717 5716 5714 5714 5713 5713 5713 5713 5712 5710 5710 5709 5707 5705 5703 5703 5703 5705 5703 5699 5694 5694 5696 5697 5697
5736 5735 5734 5734 5735 5734 5733 5732 5731 5729 5728 5727 5725 5724 5723 5721 5720 5719 5717 5717 5714 5713 5712 5712 5713 5712 5712 5710 5709 5708 5707 5706 5704 5703 5703 5702 5702 5704 5699 5692 5693 5694 5695
5737 5736 5735 5734 5733 5732 5730 5729 5728 5726 5726 5725 5725 5724 5722 5720 5718 5717 5716 5716 5715 5713 5712 5711 5712 5711 5711 5710 5708 5707 5705 5705 5703 5703 5704 5703 5702 5701 5700 5695 5692 5691 5691
5738 5735 5733 5732 5731 5729 5728 5728 5726 5725 5724 5724 5724 5723 5722 5720 5719 5718 5716 5716 5715 5713 5712 5712 5711 5710 5709 5708 5707 5707 5706 5705 5703 5703 5703 5702 5702 5702 5700 5697 5694 5691 5691
5740 5738 5736 5734 5732 5730 5729 5728 5727 5725 5724 5724 5725 5724 5722 5721 5720 5718 5717 5716 5715 5713 5712 5710 5710 5708 5707 5707 5706 5707 5705 5705 5703 5702 5701 5700 5700 5700 5699 5697 5694 5691 5691
5740 5739 5738 5736 5734 5732 5730 5729 5727 5726 5725 5725 5724 5724 5723 5721 5719 5718 5717 5715 5714 5712 5711 5710 5709 5707 5706 5706 5705 5704 5704 5702 5702 5701 5700 5699 5698 5697 5696 5696 5695 5693 5690
5742 5740 5739 5737 5736 5734 5732 5730 5729 5728 5726 5725 5724 5722 5722 5720 5719 5718 5716 5715 5714 5711 5710 5710 5709 5707 5705 5704 5703 5703 5701 5701 5698 5697 5697 5696 5696 5694 5693 5693 5693 5693 5691
5742 5741 5740 5739 5737 5735 5733 5731 5730 5728 5726 5725 5724 5722 5721 5719 5718 5716 5714 5713 5712 5711 5710 5708 5708 5707 5705 5704 5701 5701 5699 5699 5699 5697 5695 5693 5692 5692 5691 5690 5689 5689 5687
5744 5742 5740 5738 5736 5734 5733 5731 5730 5729 5726 5725 5724 5722 5720 5719 5717 5716 5714 5713 5711 5710 5709 5707 5706 5704 5703 5702 5700 5698 5697 5696 5695 5694 5693 5691 5689 5688 5688 5686 5686 5684 5684
5743 5742 5739 5738 5736 5734 5733 5732 5730 5729 5727 5724 5723 5722 5720 5718 5717 5715 5713 5712 5710 5708 5707 5706 5704 5702 5701 5699 5698 5697 5696 5694 5693 5691 5690 5689 5687 5685 5684 5683 5682 5681 5679
5741 5740 5738 5738 5736 5735 5734 5732 5731 5729 5727 5724 5722 5721 5720 5718 5716 5715 5712 5710 5709 5707 5705 5704 5702 5700 5698 5697 5696 5694 5693 5692 5690 5688 5687 5686 5684 5682 5681 5679 5678 5676 5675
5739 5738 5737 5737 5736 5735 5734 5733 5731 5729 5727 5724 5722 5721 5720 5718 5715 5712 5710 5708 5706 5704 5703 5701 5699 5697 5695 5694 5692 5692 5690 5690 5688 5686 5684 5681 5678 5675 5675 5675 5673 5672 5670
5737 5738 5738 5738 5737 5736 5735 5733 5731 5729 5727 5724 5722 5720 5718 5715 5712 5710 5708 5705 5703 5701 5699 5697 5696 5694 5691 5687 5685 5686 5687 5687 5685 5683 5681 5677 5674 5670 5668 5667 5665 5664 5665
5737 5738 5739 5739 5739 5739 5738 5734 5732 5730 5726 5723 5721 5718 5716 5712 5710 5708 5705 5701 5699 5697 5695 5693 5692 5690 5687 5683 5681 5680 5682 5683 5682 5680 5678 5675 5672 5668 5667 5663 5660 5658 5655
5736 5737 5738 5739 5739 5739 5737 5735 5732 5729 5726 5723 5720 5717 5713 5710 5707 5704 5701 5699 5698 5694 5691 5690 5688 5686 5683 5679 5677 5676 5678 5678 5677 5675 5674 5671 5669 5665 5663 5661 5659 5657 5654
5737 5737 5739 5739 5739 5737 5736 5733 5729 5727 5724 5721 5719 5716 5712 5708 5704 5701 5699 5697 5695 5692 5689 5687 5685 5682 5680 5675 5673 5671 5674 5673 5672 5670 5668 5666 5664 5658 5655 5655 5654 5651 5648
5734 5735 5735 5735 5734 5733 5733 5729 5726 5724 5721 5720 5718 5715 5712 5707 5703 5700 5698 5694 5691 5688 5686 5683 5681 5679 5677 5672 5669 5666 5670 5669 5668 5665 5663 5658 5656 5652 5649 5649 5648 5646 5644
5729 5730 5730 5729 5729 5730 5728 5725 5724 5722 5720 5718 5715 5712 5709 5705 5702 5698 5694 5691 5688 5685 5682 5680 5677 5676 5673 5669 5665 5662 5664 5664 5663 5661 5658 5655 5649 5645 5643 5641 5641 5639 5635
5723 5724 5725 5724 5724 5725 5723 5721 5719 5718 5716 5714 5711 5708 5705 5702 5698 5693 5690 5688 5684 5680 5678 5676 5674 5672 5669 5665 5662 5658 5657 5657 5657 5655 5653 5650 5644 5640 5636 5634 5632 5629 5626
5719 5719 5719 5718 5718 5718 5718 5715 5714 5713 5711 5708 5705 5703 5701 5697 5694 5690 5686 5683 5680 5678 5676 5674 5671 5669 5667 5663 5658 5654 5652 5649 5649 5649 5645 5641 5636 5633 5630 5626 5623 5620 5619
5714 5715 5713 5712 5712 5712 5711 5710 5709 5707 5705 5703 5700 5698 5696 5692 5690 5686 5684 5680 5678 5675 5673 5671 5668 5666 5663 5660 5656 5652 5648 5644 5641 5640 5637 5632 5629 5625 5623 5621 5617 5614 5612
5709 5709 5708 5707 5706 5706 5704 5704 5703 5702 5700 5698 5695 5693 5690 5688 5684 5681 5679 5677 5675 5674 5670 5668 5666 5662 5659 5657 5652 5648 5646 5642 5639 5635 5632 5629 5625 5622 5619 5616 5613 5609 5606
5703 5702 5701 5700 5700 5700 5698 5697 5697 5696 5694 5692 5689 5686 5683 5680 5678 5675 5672 5667 5666 5663 5661 5659 5658 5657 5653 5649 5644 5640 5637 5633 5629 5626 5625 5623 5620 5617 5614 5611 5607 5602 5599